Regional Weather Roundup
Issued by NWS

Home | Current Version | Previous Version | Text Only | Print | Product List | Glossary Off
Versions: 1 2 3 4 5 6 7 8 9 10 11 12 13 14 15 16 17 18 19 20 21 22 23 24 25 26 27 28 29 30 31 32 33 34 35 36 37 38 39 40 41 42 43 44 45 46 47 48 49 50

000
ASUS43 KIND 302009
RWRIN

WEATHER ROUNDUP FOR INDIANA
NATIONAL WEATHER SERVICE INDIANAPOLIS IN
400 PM EDT SUN AUG 30 2015

NOTE: "FAIR" INDICATES FEW OR NO CLOUDS BELOW 12,000 FEET WITH NO
SIGNIFICANT WEATHER AND/OR OBSTRUCTIONS TO VISIBILITY.

* - STATION DOES NOT REPORT WEATHER SUCH AS PRECIPITATION OR FOG.

+ - STATION NOT QUALITY CONTROLLED BY THE NATIONAL WEATHER SERVICE.
    USE DATA WITH CAUTION...ESPECIALLY DEWPOINT AND RELATIVE
    HUMIDITY OBSERVATIONS.

INZ001>003-010>013-019-020-302100-
NORTHWEST INDIANA

CITY           SKY/WX    TMP DP  RH WIND       PRES   REMARKS
GARY /AIRPORT/ CLOUDY    73  64  73 N7        30.07F
KNOX *+        CLOUDY    75  68  78 W3        30.04F
LA PORTE +     CLOUDY    76  71  83 CALM      30.06F
MICHIGAN CITY+ PTSUNNY   72  63  73 N7        30.07S
MONTICELLO +   MOSUNNY   82  71  68 W5        30.03F
RENSSELAER +   PTSUNNY   79  73  83 NW6       30.05F
VALPARAISO     PTSUNNY   77  67  71 W3        30.06F

$$

LMZ046-743>745-302100-
SOUTHERN LAKE MICHIGAN

STATION/POSITION TIME  TEMP    WIND        PRES    WAVE
                       AIR SEA DIR/SP/G            HT
                 (UTC) (F)     (DEG/KT/KT) (MB)    (FT)
BURNS HARBOR     1900   69     330/  4/  6 1018.6F
MICHIGAN CITY    1900   70     290/  7/  7   N/A
5NW MICH CITY    2000   69 71  360/  6/  8   N/A     1

$$

INZ004-005-014>016-021>024-302100-
NORTH CENTRAL INDIANA

CITY           SKY/WX    TMP DP  RH WIND       PRES   REMARKS
ELKHART        CLOUDY    75  68  78 SW5       30.06F FOG
GOSHEN         MOSUNNY   80  70  71 W10       30.04F
LOGANSPORT +   MOSUNNY   84  61  45 SW5       30.04F
PERU/GRISSOM   PTSUNNY   83  67  59 W12       30.03F
ROCHESTER +    MOSUNNY   84  70  61 W7        30.04F
SOUTH BEND     CLOUDY    75  66  73 W6        30.06F
WARSAW +       PTSUNNY   81  68  65 W6        30.04F

$$

INZ006>009-017-018-025>027-302100-
NORTHEAST INDIANA

CITY           SKY/WX    TMP DP  RH WIND       PRES   REMARKS
ANGOLA *+      PTSUNNY   82  72  69 W6        30.05S
AUBURN +       MOSUNNY   82  64  54 W7        30.05F
FORT WAYNE     MOSUNNY   84  67  56 W10G17    30.04F
HUNTINGTON +   MOSUNNY   84  61  45 W7        30.03F

$$

INZ028-029-035-036-043>045-051>053-302100-
WEST CENTRAL INDIANA

CITY           SKY/WX    TMP DP  RH WIND       PRES   REMARKS
CRAWFORDSVL +  PTSUNNY   80  60  50 W7        30.05F
GREENCASTLE +  CLOUDY    81  63  54 SW3       30.06F
LAFAYETTE      MOSUNNY   84  64  50 MISG      30.03F
TERRE HAUTE    PTSUNNY   85  65  51 SW7       30.04F

$$

INZ030>032-037>040-046>048-054>057-064-065-302100-
CENTRAL INDIANA

CITY           SKY/WX    TMP DP  RH WIND       PRES   REMARKS
COLUMBUS       MOSUNNY   84  61  45 SW10      30.05F
FRANKFORT +    PTSUNNY   82  69  64 S7        30.07F
GREENWOOD *+   MOSUNNY   84  61  45 SW7       30.06F
INDIANAPOLIS   MOSUNNY   85  63  47 SW13      30.04F
-EAGLE CREEK   MOSUNNY   85  64  49 VRB7      30.04F
KOKOMO *+      MOSUNNY   86  64  48 W12       30.04F
MARION +       MOSUNNY   84  52  33 W9        30.04F
MT COMFORT *+  MOSUNNY   86  54  32 SW8       30.05F
SHELBYVILLE    PTSUNNY   86  65  49 VRB7      30.04F
ZIONSVILLE +   MOSUNNY   84  63  48 SW7       30.06F

$$

INZ033-034-041-042-049-050-058-059-302100-
EAST CENTRAL INDIANA

CITY           SKY/WX    TMP DP  RH WIND       PRES   REMARKS
MUNCIE         MOSUNNY   84  63  49 SW9G20    30.04F

$$

INZ060-061-067>069-081>083-085>088-302100-
SOUTHWEST INDIANA

CITY           SKY/WX    TMP DP  RH WIND       PRES   REMARKS
EVANSVILLE     PTSUNNY   84  68  58 S8        30.05F
HUNTINGBURG *+ MOSUNNY   84  68  58 S13       30.06F
WASHINGTON +   MOSUNNY   87  59  38 CALM      30.03F

$$

INZ062-063-066-070>080-084-089>092-302100-
SOUTH CENTRAL AND SOUTHEAST INDIANA

CITY           SKY/WX    TMP DP  RH WIND       PRES   REMARKS
BLOOMINGTON    PTSUNNY   84  67  56 VRB5      30.06F
MADISON *+     MOSUNNY   86  64  48 SW7       30.08F
NORTH VERNON + PTSUNNY   86  64  48 S6        30.07F
SEYMOUR +      MOSUNNY   84  64  51 S12G17    30.05F

$$



USA.gov is the U.S. government's official web portal to all federal, state and local government web resources and services.